ROCKY HARBOUR CS/NF, current weather conditions

sailwx.info

Last reported at 2015-Mar-20 01:32 UTC.
Time now 2015-May-28 08:01 UTC

Location: N 49°34' W 057°53'.
View on Google Maps.

See reports from other nearby stations

  
Tides and Currents Weather Stations Pressure Air Temp Water Temp Dewpoint Dewpoint Depression Visibility Wind Speed Wind Dir Waves Ship Positions
date/time (UTC)wind fromknots sea level pressurealtimeterstation pressurevisibilityair tempwater tempwave heightnotes
2015-May-28 06:00 230 15 gusting 27 19.0
2015-May-28 05:00 140 7 14.0
2015-May-28 04:00 160 7 gusting 16 13.0
2015-May-28 03:00 160 6 13.0
2015-May-28 02:00 160 6 13.0
2015-May-28 01:00 160 2 13.0
2015-May-28 00:00 190 1 13.0
2015-May-27 23:00 040 1 9.0
2015-May-27 22:00 230 4 10.0
2015-May-27 21:00 230 3 11.0
2015-May-27 20:00 180 5 15.0
2015-May-27 19:00 160 4 14.0
2015-May-27 18:00 240 1 12.0
2015-May-27 17:00 240 2 12.0
2015-May-27 16:00 10.0
2015-May-27 15:00 270 3 8.0
2015-May-27 14:00 260 3 11.0
2015-May-27 13:00 10.0
2015-May-27 12:00 250 3 9.0
2015-May-27 11:00 9.0
2015-May-27 10:00 040 1 7.0
2015-May-27 09:00 040 3 8.0
2015-May-27 08:00 040 3 8.0
2015-May-27 07:00 350 1 9.0
2015-May-27 06:00 10.0
2015-May-27 05:00 10.0
2015-May-27 04:00 190 2 11.0
2015-May-27 03:00 180 3 12.0
2015-May-27 02:00 180 3 12.0
2015-May-27 01:00 160 4 12.0
2015-May-27 00:00 160 5 13.0
2015-May-26 23:00 160 6 13.0
2015-May-26 22:00 140 5 14.0
2015-May-26 21:00 100 3 14.0
2015-May-26 20:00 200 3 15.0
2015-May-26 19:00 200 2 15.0
2015-May-26 18:00 360 2 18.0
2015-May-26 17:00 040 3 16.0
2015-May-26 16:00 300 5 18.0
2015-May-26 15:00 290 6 19.0
2015-May-26 14:00 180 3 23.0
2015-May-26 13:00 160 4 21.0
2015-May-26 12:00 130 5 17.0
2015-May-26 11:00 130 2 16.0
2015-May-26 10:00 150 4 12.0
2015-May-26 09:00 140 5 9.0
2015-May-26 08:00 160 3 8.0